Weather History for Phuket, Thailand

Change the Weather History Date:

Sunday, November 30, 2014

  Actual Average Record
Temperature  
Mean Temperature 82 °F -  
Max Temperature 90 °F 88 °F 95 °F (2001)
Min Temperature 73 °F 74 °F 71 °F (2003)
Cooling Degree Days 16    
Growing Degree Days 32 (Base 50)    
Moisture  
Dew Point 75 °F    
Average Humidity 77    
Maximum Humidity 94    
Minimum Humidity 54    
Precipitation  
Precipitation 0.00 in 0.09 in - ()
Sea Level Pressure  
Sea Level Pressure 29.79 in    
Wind  
Wind Speed 3 mph ()    
Max Wind Speed 13 mph    
Max Gust Speed -    
Visibility 6.0 miles    
Events      
Averages and records for this station are not official NWS values.
T = Trace of Precipitation, MM = Missing Value Source: Averaged Metar Reports

Daily Weather History Graph

Daily Weather History Graph

Search for Another Location

Airport:

Trip Planner

Search our weather history database for the weather conditions in past years. The results will help you decide how hot, cold, wet, or windy it might be!

Date:

Astronomy

Nov. 30, 2014 Rise Set
Actual Time 6:24 AM ICT 6:06 PM ICT
Civil Twilight 6:02 AM ICT 6:28 PM ICT
Nautical Twilight 5:36 AM ICT 6:54 PM ICT
Astronomical Twilight 5:10 AM ICT 7:20 PM ICT
Moon 1:07 PM ICT (11/30) 12:36 AM ICT (11/30)
Length of Visible Light 12h 26m
Length of Day
11h 41m
First Quarter, 59% of the Moon is Illuminated
Nov 30
First Quarter
Dec 6
Full
Dec 14
Last Quarter
Dec 22
New
Dec 29
First Quarter

Hourly Weather History & Observations

Time (ICT) Temp. Heat Index Dew Point Humidity Pressure Visibility Wind Dir Wind Speed Gust Speed Precip Events Conditions
12:00 AM 80.6 °F 86.2 °F 75.2 °F 84% 29.83 in 6.2 mi Variable 1.2 mph - N/A   Mostly Cloudy
12:30 AM 78.8 °F - 75.2 °F 89% 29.83 in 6.2 mi Variable 2.3 mph - N/A   Mostly Cloudy
1:00 AM 81 °F - 78 °F 87% 29.78 in 6 mi Calm Calm - -   Scattered Clouds
1:00 AM 78.8 °F - 75.2 °F 89% 29.80 in 5.6 mi Variable 1.2 mph - N/A   Mostly Cloudy
1:30 AM 78.8 °F - 75.2 °F 89% 29.80 in 5.6 mi Variable 1.2 mph - N/A   Mostly Cloudy
2:00 AM 78.8 °F - 75.2 °F 89% 29.77 in 5.6 mi Variable 2.3 mph - N/A   Mostly Cloudy
2:30 AM 77.0 °F - 75.2 °F 94% 29.77 in 5.6 mi Calm Calm - N/A   Mostly Cloudy
3:00 AM 77.0 °F - 75.2 °F 94% 29.77 in 5.6 mi Variable 1.2 mph - N/A   Mostly Cloudy
3:30 AM 77.0 °F - 75.2 °F 94% 29.77 in 5.6 mi Calm Calm - N/A   Mostly Cloudy
4:00 AM 79 °F - 75 °F 85% 29.76 in 6 mi Calm Calm - -   Scattered Clouds
4:00 AM 77.0 °F - 75.2 °F 94% 29.77 in 5.6 mi Variable 1.2 mph - N/A   Mostly Cloudy
4:30 AM 77.0 °F - 73.4 °F 89% 29.77 in 5.6 mi Calm Calm - N/A   Mostly Cloudy
5:00 AM 77.0 °F - 73.4 °F 89% 29.77 in 5.6 mi Variable 1.2 mph - N/A   Mostly Cloudy
5:30 AM 77.0 °F - 73.4 °F 89% 29.77 in 5.6 mi Variable 2.3 mph - N/A   Mostly Cloudy
6:00 AM 77.0 °F - 73.4 °F 89% 29.77 in 5.6 mi Calm Calm - N/A   Mostly Cloudy
6:30 AM 77.0 °F - 73.4 °F 89% 29.80 in 5.6 mi Variable 2.3 mph - N/A   Mostly Cloudy
7:00 AM 77 °F - 76 °F 94% 29.75 in 6 mi Calm Calm - -   Scattered Clouds
7:00 AM 77.0 °F - 75.2 °F 94% 29.80 in 6.2 mi Variable 2.3 mph - N/A   Mostly Cloudy
7:30 AM 80.6 °F 87.1 °F 77.0 °F 89% 29.80 in 6.2 mi SE 2.3 mph - N/A   Mostly Cloudy
8:00 AM 82.4 °F 89.5 °F 75.2 °F 79% 29.83 in 6.2 mi Variable 2.3 mph - N/A   Mostly Cloudy
8:30 AM 86.0 °F 95.1 °F 75.2 °F 70% 29.86 in 6.2 mi Calm Calm - N/A   Mostly Cloudy
9:00 AM 86.0 °F 95.1 °F 75.2 °F 70% 29.86 in 6.2 mi Calm Calm - N/A   Mostly Cloudy
9:30 AM 86.0 °F 93.4 °F 73.4 °F 66% 29.86 in 6.2 mi North 1.2 mph - N/A   Mostly Cloudy
10:00 AM 88 °F - 76 °F 61% 29.84 in 6 mi Calm Calm - -   Scattered Clouds
10:00 AM 87.8 °F 97.6 °F 75.2 °F 66% 29.86 in 6.2 mi NE 3.5 mph - N/A   Mostly Cloudy
10:30 AM 86.0 °F 91.8 °F 71.6 °F 62% 29.86 in 6.2 mi West 5.8 mph - N/A   Mostly Cloudy
11:00 AM 87.8 °F 95.6 °F 73.4 °F 62% 29.86 in 6.2 mi WSW 5.8 mph - N/A   Mostly Cloudy
11:30 AM 89.6 °F 98.2 °F 73.4 °F 59% 29.83 in 6.2 mi West 4.6 mph - N/A   Mostly Cloudy
12:00 PM 89.6 °F 98.2 °F 73.4 °F 59% 29.83 in 6.2 mi WNW 5.8 mph - N/A   Mostly Cloudy
12:30 PM 89.6 °F 98.2 °F 73.4 °F 59% 29.80 in 6.2 mi West 10.4 mph - N/A   Mostly Cloudy
1:00 PM 90 °F - 76 °F 55% 29.78 in 6 mi WSW 2.3 mph - -   Scattered Clouds
1:30 PM 87.8 °F 97.6 °F 75.2 °F 66% 29.77 in 6.2 mi West 11.5 mph - N/A   Mostly Cloudy
2:00 PM 87.8 °F 97.6 °F 75.2 °F 66% 29.77 in 6.2 mi West 10.4 mph - N/A   Mostly Cloudy
2:30 PM 87.8 °F 97.6 °F 75.2 °F 66% 29.74 in 6.2 mi West 11.5 mph - N/A   Mostly Cloudy
3:00 PM 87.8 °F 97.6 °F 75.2 °F 66% 29.74 in 6.2 mi WNW 10.4 mph - N/A   Mostly Cloudy
3:30 PM 87.8 °F 95.6 °F 73.4 °F 62% 29.74 in 6.2 mi WNW 10.4 mph - N/A   Mostly Cloudy
4:00 PM 90 °F - 76 °F 54% 29.71 in 6 mi West 2.3 mph - -   Scattered Clouds
4:00 PM 87.8 °F 95.6 °F 73.4 °F 62% 29.74 in 6.2 mi West 12.7 mph - N/A   Mostly Cloudy
4:30 PM 86.0 °F 93.4 °F 73.4 °F 66% 29.74 in 6.2 mi West 11.5 mph - N/A   Mostly Cloudy
5:00 PM 87.8 °F 95.6 °F 73.4 °F 62% 29.74 in 6.2 mi West 10.4 mph - N/A   Mostly Cloudy
5:30 PM 86.0 °F 95.1 °F 75.2 °F 70% 29.74 in 6.2 mi WNW 9.2 mph - N/A   Mostly Cloudy
6:00 PM 84.2 °F 92.3 °F 75.2 °F 74% 29.74 in 6.2 mi WNW 6.9 mph - N/A   Mostly Cloudy
6:30 PM 84.2 °F 92.3 °F 75.2 °F 74% 29.77 in 6.2 mi WNW 6.9 mph - N/A   Mostly Cloudy
7:00 PM 86 °F - 76 °F 66% 29.74 in 6 mi Calm Calm - -   Scattered Clouds
7:00 PM 84.2 °F 92.3 °F 75.2 °F 74% 29.77 in 6.2 mi WNW 5.8 mph - N/A   Mostly Cloudy
7:30 PM 82.4 °F 89.5 °F 75.2 °F 79% 29.80 in 6.2 mi WNW 5.8 mph - N/A   Mostly Cloudy
8:00 PM 82.4 °F 89.5 °F 75.2 °F 79% 29.80 in 6.2 mi West 5.8 mph - N/A   Mostly Cloudy
8:30 PM 82.4 °F 89.5 °F 75.2 °F 79% 29.83 in 6.2 mi WNW 5.8 mph - N/A   Partly Cloudy
9:00 PM 82.4 °F 89.5 °F 75.2 °F 79% 29.83 in 6.2 mi WNW 5.8 mph - N/A   Partly Cloudy
9:30 PM 80.6 °F 86.2 °F 75.2 °F 84% 29.83 in 6.2 mi Calm Calm - N/A   Partly Cloudy
10:00 PM 82 °F - 75 °F 73% 29.79 in 6 mi Calm Calm - -   Scattered Clouds
10:00 PM 78.8 °F - 75.2 °F 89% 29.83 in 6.2 mi Calm Calm - N/A   Partly Cloudy
10:30 PM 78.8 °F - 75.2 °F 89% 29.83 in 6.2 mi Calm Calm - N/A   Partly Cloudy
11:30 PM 82.4 °F 89.5 °F 75.2 °F 79% 29.83 in 6.2 mi NW 5.8 mph - N/A   Partly Cloudy